Wind_Speed
33 33 32 32 31 31 31 31 31 32 32 32 32 32 32 32 32 32 32 32 32 32 32 32 32 32 32 32 32 33 33 33 33 33 34 34 34 34 34 35 35 35 35
34 34 33 33 32 32 32 33 33 33 33 33 33 33 33 34 33 33 33 33 33 33 33 34 33 33 34 34 34 35 35 36 36 35 36 35 36 36 36 37 37 37 37
36 35 35 34 34 34 34 34 34 34 34 34 35 35 35 35 35 35 35 35 35 34 34 35 34 34 35 35 35 36 36 37 37 37 37 37 38 38 38 38 39 39 38
37 37 37 36 36 36 36 36 36 36 36 36 36 36 37 37 37 37 36 36 36 36 36 36 37 37 37 37 37 37 38 38 38 38 38 38 39 40 40 40 40 40 40
40 40 39 39 38 38 37 38 38 38 38 38 38 38 38 38 38 38 38 38 38 38 39 39 39 38 38 39 38 39 39 39 39 40 39 40 41 41 42 42 42 41 41
41 41 40 41 41 40 40 39 39 39 40 40 40 40 40 40 40 39 40 40 41 40 40 40 40 40 40 40 40 40 40 40 41 41 41 41 42 43 44 44 43 42 42
42 42 42 42 42 42 42 42 41 42 42 42 42 42 41 42 41 40 40 41 42 42 42 41 41 41 41 40 41 41 41 42 42 42 42 42 42 44 44 43 43 43 43
44 44 44 43 43 43 43 43 43 43 43 43 43 43 43 42 42 41 41 41 41 41 41 42 42 42 42 42 42 43 42 43 43 43 43 42 43 44 44 44 44 44 44
44 46 45 45 44 44 43 43 42 42 43 43 44 45 44 43 42 41 41 42 42 42 42 43 43 44 44 44 44 44 44 44 44 44 44 44 44 45 46 45 45 44 44
43 44 45 45 45 44 44 43 42 43 42 42 43 45 45 45 43 43 43 43 43 43 43 43 44 45 45 45 44 44 45 44 43 44 44 44 44 45 46 45 45 44 43
45 45 45 45 46 45 44 44 44 44 44 43 44 45 44 44 45 45 44 44 44 43 44 44 45 45 45 45 45 45 45 44 44 45 45 45 45 44 45 45 45 45 44
47 47 46 46 46 45 45 45 45 43 43 44 44 44 44 44 45 46 45 45 45 44 44 44 45 45 45 45 45 45 45 45 45 45 45 45 45 45 45 45 45 45 44
49 48 49 47 47 46 46 46 45 44 44 43 43 43 44 44 45 45 45 45 44 44 43 44 44 45 45 45 45 45 45 44 44 45 45 45 45 45 45 45 45 44 43
49 49 49 48 48 47 47 47 46 46 45 45 45 44 44 44 44 45 45 45 45 44 44 43 44 45 45 46 45 45 44 45 45 45 46 46 45 45 45 44 43 43 43
49 49 49 48 48 48 48 47 45 45 45 45 45 44 44 44 45 46 46 46 45 45 44 44 45 45 45 45 45 46 45 46 46 46 47 46 46 46 45 43 42 42 42
48 49 48 48 48 47 46 46 45 44 44 45 45 46 45 44 44 45 46 45 45 46 45 44 45 45 45 45 45 45 45 45 46 46 46 46 45 43 42 42 41 40 39
47 47 48 48 47 47 47 46 46 45 45 45 45 45 44 44 45 45 44 45 46 46 46 45 45 45 44 44 44 43 44 45 44 44 44 44 41 40 39 40 39 38 37
45 45 46 46 47 47 47 47 46 45 45 45 45 44 44 45 45 44 44 45 45 45 44 44 43 43 43 42 43 43 44 44 42 41 40 40 39 39 39 38 37 36 36
44 44 45 45 45 45 46 45 45 44 44 44 43 43 43 43 43 43 43 43 43 42 42 41 41 41 41 41 42 42 41 41 40 38 38 38 38 38 38 36 35 34 34
43 43 43 43 43 44 44 44 44 44 43 43 43 43 43 42 42 42 41 41 40 40 39 39 40 40 40 40 40 39 38 38 37 36 36 36 36 36 36 35 33 32 31
41 40 41 41 41 41 42 43 44 44 43 42 42 42 42 42 42 41 40 40 39 38 38 38 39 39 39 39 38 37 36 36 35 35 35 35 35 35 34 33 32 31 29
38 38 39 39 40 41 41 41 42 42 43 42 41 42 42 41 40 40 39 40 38 38 37 37 37 36 36 36 36 36 35 35 34 34 34 33 33 33 32 31 30 29 28
37 38 38 39 40 40 40 40 41 42 43 42 41 41 40 40 38 38 38 38 37 37 36 36 35 34 34 34 35 35 34 33 33 33 32 32 32 31 30 29 28 27 27
35 36 37 37 37 38 39 39 40 41 42 42 41 40 39 36 36 35 35 35 35 35 34 34 33 33 33 33 34 34 32 32 32 31 30 30 30 29 29 28 27 27 27
35 36 37 37 37 37 37 38 38 38 39 40 40 39 37 36 35 34 34 35 35 35 34 34 34 33 32 32 32 32 31 31 30 30 30 29 28 28 27 26 26 26 26
32 33 35 35 36 36 37 37 36 36 37 38 38 37 36 34 34 33 33 33 33 33 33 34 34 33 31 30 30 30 29 29 28 27 27 27 26 26 25 24 24 24 24
Wind_Direction
257 258 261 261 263 265 267 269 269 270 271 272 273 272 274 275 276 277 278 278 280 282 284 285 286 286 286 287 288 288 289 291 292 294 294 293 293 293 293 294 294 294 294
256 258 260 261 263 266 267 268 270 271 272 272 272 273 274 275 277 277 277 278 279 281 283 285 286 286 286 286 287 288 290 290 291 291 292 292 292 292 293 293 294 294 293
256 258 259 261 264 266 267 268 269 271 271 271 272 272 273 274 276 277 277 278 280 281 283 284 285 285 285 285 286 287 289 290 291 291 291 291 292 291 291 293 294 293 293
255 258 259 261 264 266 266 268 269 270 271 272 273 273 273 274 275 276 276 277 279 281 283 283 284 283 284 284 285 287 288 289 289 289 290 290 291 292 292 292 293 293 293
256 258 260 262 264 265 266 267 269 270 271 272 273 274 274 275 276 276 276 277 279 281 282 282 282 282 283 283 284 285 287 287 288 288 289 290 290 291 291 291 291 292 292
256 258 261 263 264 265 266 267 269 270 271 272 273 273 273 274 275 276 276 277 278 280 281 281 281 281 282 283 283 285 286 287 288 288 289 290 290 290 291 291 290 291 291
258 261 262 263 265 267 267 268 269 270 271 272 272 272 273 274 275 276 277 278 278 279 280 280 280 280 281 281 283 284 286 287 288 289 289 290 290 290 289 290 289 291 291
257 259 261 263 266 268 268 269 270 270 271 272 271 272 272 273 274 276 277 278 278 278 278 278 279 279 279 280 282 284 285 287 288 288 289 289 290 289 289 289 289 290 290
259 259 261 265 266 268 269 271 270 270 270 271 271 271 272 274 275 275 276 277 277 277 278 278 278 279 279 281 282 282 284 286 287 288 288 289 290 289 289 289 289 288 288
258 260 262 264 265 268 269 270 270 270 270 271 272 272 272 273 273 274 275 276 276 277 277 278 279 280 280 281 282 283 284 286 287 288 289 290 291 290 289 288 289 288 287
258 261 262 265 266 267 268 269 270 271 271 273 274 274 273 273 272 273 275 275 276 277 278 279 280 281 280 281 282 283 284 285 286 288 289 289 291 291 290 289 287 286 286
259 262 264 265 265 266 268 269 269 270 272 273 274 274 274 274 274 273 275 276 277 278 279 280 280 281 281 281 282 282 283 284 286 287 288 289 289 290 289 289 287 286 285
258 260 263 263 264 266 267 267 269 270 271 272 273 273 274 275 273 274 276 277 278 278 278 279 281 281 282 282 282 282 283 283 284 285 287 288 289 290 289 289 288 287 285
257 259 262 262 263 265 266 267 269 271 270 271 272 272 273 273 274 275 276 277 277 277 278 279 281 282 282 283 282 281 281 282 284 284 286 288 289 289 289 288 288 287 284
258 259 259 261 262 264 265 267 268 270 270 270 271 271 272 272 273 275 276 277 278 278 278 279 280 281 282 282 281 280 280 281 283 284 285 288 289 289 288 287 287 285 283
259 259 260 261 261 263 265 266 267 269 269 270 271 272 272 272 273 274 276 277 278 279 279 279 280 280 281 281 281 281 281 282 284 285 286 287 289 290 288 287 286 286 283
261 259 259 260 261 262 263 265 266 267 268 269 270 271 270 272 274 275 277 277 278 279 278 278 279 279 280 280 281 283 284 283 284 285 286 288 288 289 289 288 286 286 284
262 261 261 261 261 262 262 263 265 266 267 268 270 270 269 271 273 275 277 277 278 278 278 278 278 278 279 280 281 282 283 283 284 285 285 286 287 288 289 289 286 286 284
262 261 261 261 261 262 262 263 264 265 266 267 268 268 269 271 273 275 277 278 278 277 277 277 277 277 279 280 281 282 283 284 283 284 284 285 287 289 289 290 288 287 284
260 260 261 259 260 261 262 263 263 264 265 267 267 268 268 270 273 274 275 277 277 276 277 277 278 278 278 280 280 281 283 284 283 282 284 286 288 290 290 289 289 288 285
260 261 261 259 260 261 262 263 263 264 265 266 267 267 268 270 272 274 274 276 276 275 275 277 278 279 279 279 280 281 282 283 281 282 284 286 288 290 290 289 287 286 284
260 260 260 259 260 262 264 265 264 264 265 267 268 268 268 269 270 273 273 274 274 275 275 277 279 280 280 280 280 281 281 280 280 281 283 286 290 291 291 291 290 286 284
260 261 261 260 260 262 264 265 266 266 266 265 268 270 270 269 269 270 272 272 273 274 276 277 279 280 279 279 280 280 280 278 279 280 282 286 290 291 290 289 288 286 286
260 261 261 262 262 263 264 266 266 266 265 265 267 269 270 269 268 270 271 272 273 273 275 277 279 280 279 279 279 279 279 279 279 281 282 286 288 288 289 288 286 288 288
260 261 262 262 263 263 264 265 266 266 266 266 267 267 267 266 266 267 268 270 272 274 276 277 279 279 279 280 279 277 277 279 278 280 282 284 286 287 286 286 287 289 290
263 263 263 263 263 262 263 264 265 266 266 266 266 264 263 263 263 264 267 271 273 275 276 276 277 278 279 280 279 276 275 278 280 280 282 284 286 285 284 285 286 287 289
Height
5799 5800 5800 5801 5802 5802 5803 5803 5803 5803 5802 5802 5802 5802 5802 5801 5801 5800 5799 5798 5797 5796 5794 5793 5791 5789 5787 5785 5783 5781 5779 5777 5774 5772 5769 5767 5764 5761 5759 5756 5753 5750 5747
5791 5792 5793 5794 5794 5795 5795 5796 5796 5795 5795 5795 5795 5794 5794 5794 5794 5793 5792 5791 5790 5788 5787 5785 5784 5782 5780 5778 5776 5774 5771 5769 5767 5764 5762 5759 5756 5753 5751 5748 5745 5742 5739
5783 5784 5785 5786 5787 5787 5788 5788 5788 5788 5787 5787 5787 5787 5786 5786 5785 5785 5784 5783 5782 5781 5779 5778 5776 5774 5772 5770 5768 5766 5763 5761 5758 5756 5753 5751 5748 5745 5742 5739 5736 5733 5730
5775 5776 5777 5778 5779 5779 5779 5780 5780 5779 5779 5779 5778 5778 5778 5777 5777 5776 5775 5774 5773 5772 5771 5769 5767 5766 5764 5762 5760 5757 5755 5752 5750 5747 5744 5741 5739 5736 5733 5730 5726 5723 5720
5766 5768 5769 5769 5770 5770 5771 5771 5771 5771 5771 5770 5770 5769 5769 5768 5768 5767 5766 5765 5764 5763 5762 5760 5758 5756 5755 5753 5751 5748 5746 5743 5741 5738 5735 5732 5729 5726 5723 5720 5717 5714 5710
5757 5758 5760 5760 5761 5761 5761 5761 5761 5761 5761 5761 5760 5760 5759 5759 5758 5757 5756 5755 5754 5753 5751 5750 5748 5747 5745 5743 5741 5739 5736 5733 5731 5728 5725 5722 5719 5716 5713 5709 5706 5703 5700
5747 5748 5750 5750 5751 5751 5751 5751 5751 5751 5751 5750 5750 5749 5749 5748 5748 5747 5746 5745 5744 5742 5741 5740 5738 5736 5735 5733 5731 5728 5726 5723 5721 5718 5715 5711 5708 5705 5702 5699 5696 5692 5689
5737 5738 5739 5740 5740 5740 5740 5740 5740 5739 5739 5738 5738 5737 5738 5738 5737 5737 5736 5735 5733 5732 5730 5729 5727 5726 5724 5723 5721 5718 5716 5713 5710 5707 5704 5701 5697 5694 5691 5687 5684 5681 5678
5726 5727 5728 5729 5729 5729 5729 5728 5727 5727 5727 5726 5725 5725 5726 5726 5726 5726 5725 5724 5722 5721 5720 5718 5716 5715 5713 5712 5710 5707 5705 5702 5699 5696 5692 5689 5686 5682 5679 5675 5673 5669 5667
5715 5716 5717 5717 5717 5717 5717 5717 5716 5715 5715 5714 5713 5713 5713 5714 5714 5715 5714 5713 5711 5710 5708 5707 5705 5703 5702 5700 5698 5695 5693 5690 5687 5684 5681 5677 5674 5670 5666 5663 5660 5657 5655
5704 5705 5705 5706 5706 5706 5706 5705 5705 5704 5703 5702 5702 5701 5701 5701 5701 5702 5703 5702 5700 5699 5697 5695 5693 5691 5689 5688 5686 5683 5681 5678 5675 5673 5669 5666 5662 5658 5654 5650 5647 5645 5642
5692 5693 5693 5694 5694 5694 5694 5694 5693 5692 5691 5691 5690 5690 5690 5690 5690 5690 5690 5690 5689 5688 5686 5684 5682 5680 5677 5675 5673 5671 5669 5666 5664 5661 5657 5654 5650 5646 5642 5638 5635 5632 5630
5680 5681 5681 5682 5682 5683 5682 5682 5682 5681 5680 5679 5679 5679 5679 5678 5679 5678 5678 5678 5678 5677 5675 5673 5670 5668 5666 5663 5661 5659 5657 5654 5652 5649 5645 5641 5638 5634 5630 5626 5622 5620 5618
5668 5669 5669 5669 5670 5670 5671 5670 5670 5670 5669 5668 5668 5668 5667 5667 5667 5666 5666 5666 5665 5665 5664 5662 5660 5657 5654 5652 5649 5647 5645 5642 5640 5637 5633 5629 5625 5621 5617 5614 5610 5608 5606
5654 5656 5656 5657 5657 5658 5658 5659 5659 5658 5658 5658 5657 5657 5656 5656 5656 5655 5654 5653 5653 5652 5652 5651 5649 5645 5642 5640 5637 5635 5633 5630 5627 5624 5621 5618 5614 5609 5605 5602 5599 5596 5594
5641 5642 5643 5644 5645 5645 5646 5647 5647 5647 5647 5646 5646 5645 5645 5645 5644 5643 5642 5641 5640 5639 5638 5639 5636 5634 5631 5628 5625 5623 5621 5618 5615 5612 5609 5606 5602 5598 5594 5591 5588 5584 5582
5628 5629 5630 5631 5632 5633 5634 5634 5635 5635 5635 5635 5634 5634 5633 5632 5632 5631 5630 5629 5628 5626 5625 5625 5624 5621 5619 5617 5614 5612 5609 5606 5604 5601 5598 5594 5591 5588 5584 5580 5577 5574 5572
5616 5617 5618 5619 5620 5620 5621 5622 5622 5623 5623 5623 5623 5622 5621 5621 5620 5619 5618 5617 5616 5614 5613 5613 5612 5610 5608 5606 5603 5601 5598 5595 5593 5590 5587 5584 5581 5578 5574 5570 5567 5564 5562
5603 5604 5605 5606 5607 5608 5609 5609 5610 5611 5611 5611 5611 5610 5610 5610 5609 5608 5607 5605 5604 5603 5602 5601 5601 5599 5597 5595 5593 5590 5587 5585 5582 5580 5577 5575 5572 5569 5565 5561 5558 5555 5553
5591 5592 5593 5594 5595 5596 5597 5598 5598 5599 5599 5600 5599 5599 5599 5599 5598 5597 5595 5594 5593 5592 5591 5590 5590 5588 5587 5585 5582 5580 5578 5575 5573 5571 5568 5566 5563 5560 5556 5553 5550 5547 5545
5579 5580 5581 5582 5583 5585 5586 5586 5587 5588 5588 5589 5589 5588 5588 5587 5587 5586 5585 5584 5583 5582 5581 5580 5579 5578 5577 5575 5573 5571 5569 5566 5564 5562 5560 5557 5554 5551 5548 5545 5542 5539 5537
5568 5570 5571 5572 5573 5574 5575 5575 5576 5577 5577 5578 5578 5577 5577 5576 5576 5575 5574 5573 5573 5572 5571 5570 5569 5568 5567 5565 5563 5561 5560 5558 5557 5555 5552 5549 5546 5543 5540 5537 5535 5532 5530
5559 5560 5561 5562 5563 5564 5564 5565 5565 5565 5566 5567 5567 5567 5566 5565 5565 5565 5564 5564 5563 5562 5562 5561 5560 5559 5558 5556 5554 5552 5550 5548 5547 5546 5543 5541 5538 5536 5533 5530 5528 5525 5524
5549 5550 5551 5552 5553 5553 5554 5554 5554 5554 5555 5555 5556 5556 5555 5555 5555 5555 5554 5554 5554 5553 5552 5552 5551 5550 5548 5546 5545 5543 5541 5540 5539 5537 5535 5534 5532 5529 5526 5524 5521 5519 5517
5540 5540 5541 5541 5542 5543 5543 5543 5543 5544 5544 5545 5545 5545 5545 5545 5545 5545 5545 5545 5545 5544 5543 5542 5541 5540 5538 5537 5535 5533 5532 5531 5531 5530 5528 5527 5525 5522 5520 5518 5515 5512 5510
5529 5530 5530 5531 5531 5532 5533 5533 5533 5534 5534 5534 5534 5534 5535 5536 5536 5536 5536 5536 5536 5535 5534 5533 5532 5530 5529 5527 5526 5525 5524 5523 5523 5522 5521 5519 5517 5515 5514 5512 5509 5507 5505